Flag for Cabo Verde Weather past 2 weeks in Santa Maria, Cabo Verde

Now
66 °F

Broken clouds.


Feels Like: 66 °F
Forecast: 65 / 74 °F
Wind: 17 mph from Northeast

Location: Sal

Current Time: Jan 26, 2015 at 7:39:26 AM

Latest Report: Jan 26, 2015 at 7:00 AM


Visibility: N/A

Pressure: 30.01 "Hg

Humidity: 78%

Dew point: 59 °F

Location of Santa MariaLocation

Historic Weather in Santa Maria — Graph

°F

Santa Maria temperature yesterday

Maximum temperature yesterday: 73 °F (at 12:00 PM)
Minimum temperature yesterday: 66 °F (at 12:00 AM)
Average temperature yesterday: 68 °F

Past Weeks' High & Low Weather Summary

 TemperatureHumidityPressure
High75 °F (Jan 11, 12:00 PM)88% (Jan 17, 1:00 AM)30.15 "Hg (Jan 17, 1:00 AM)
Low64 °F (Jan 19, 1:00 AM)50% (Jan 11, 2:00 PM)29.95 "Hg (Jan 20, 3:00 PM)
Average69 °F69%30.05 "Hg
* Reported Jan 11 6:00 AM — Jan 26 6:00 AM, Santa Maria, Weather by CustomWeather, © 2014

Note: Actual official high and low records may vary slightly from our data, if they occured in-between our weather recording intervals... More about our weather records

Advertising

Santa Maria weather history for previous 24 hours

 ConditionsComfort  
Time TempWeatherWind HumidityBarometerVisibility
6:00 AM
Jan 26
66 °FBroken clouds.14 mph83%30.01 "HgN/A
5:00 AM66 °FPartly cloudy.17 mph83%29.98 "HgN/A
4:00 AM66 °FPartly cloudy.16 mph83%30.01 "HgN/A
3:00 AM66 °FPartly cloudy.16 mph83%30.01 "HgN/A
2:00 AM66 °FPassing clouds.16 mph83%30.04 "HgN/A
1:00 AM66 °FPassing clouds.14 mph83%30.04 "HgN/A
12:00 AM66 °FPassing clouds.14 mph83%30.04 "HgN/A
11:00 PM
Jan 25
66 °FPassing clouds.13 mph78%30.07 "HgN/A
10:00 PM66 °FPassing clouds.15 mph78%30.07 "HgN/A
9:00 PM66 °FPassing clouds.14 mph78%30.01 "HgN/A
8:00 PM68 °FPartly cloudy.14 mph73%30.01 "HgN/A
7:00 PM68 °FPartly cloudy.15 mph73%30.01 "HgN/A
6:00 PM68 °FPartly cloudy.14 mph73%29.98 "HgN/A
5:00 PM70 °FPartly cloudy.15 mph69%29.98 "HgN/A
4:00 PM70 °FBroken clouds.16 mph69%29.98 "HgN/A
3:00 PM72 °FBroken clouds.17 mph65%29.98 "HgN/A
2:00 PM73 °FBroken clouds.17 mph61%30.01 "HgN/A
1:00 PM73 °FBroken clouds.16 mph61%30.01 "HgN/A
12:00 PM73 °FBroken clouds.16 mph57%30.04 "HgN/A
11:00 AM70 °FBroken clouds.15 mph69%30.04 "HgN/A
10:00 AM70 °FPartly sunny.18 mph69%30.07 "HgN/A
9:00 AM68 °FPartly sunny.16 mph73%30.04 "HgN/A
8:00 AM66 °FBroken clouds.20 mph78%30.01 "HgN/A
7:00 AM66 °FBroken clouds.17 mph73%30.01 "HgN/A
Weather by CustomWeather, © 2014

See weather overviewHow to use our weather pages